Starlink 32013

operational
NORAD ID: 60103 Int'l Des: 2024-117 Owner: SPXS Country: US Constellation: starlink
LEOCIRCULAR

Starlink 32013について

説明を読み込み中...

リアルタイム位置

3D地球を読み込み中...

次回通過

高度履歴

Altitude vs Time

uPlot chart will show altitude changes over time

軌道要素

1 60103U 24117N 25350.47487264 .00004439 00000-0 16187-3 0 9998
2 60103 53.1605 63.8094 0001070 91.0629 269.0494 15.30210785 84140
Epoch: Dec 16, 2025 • Age: 24 hours

現在のステータス

高度 475.3 km
速度 7.63 km/s
衛星直下点 18.72°N, 177.65°W
打ち上げ日 Jun 23, 2024
運用期間 1.4 years
タイプ internet

技術仕様

分類 Payload
質量 730.00 kg
乾燥質量 700.00 kg
総質量 730.00 kg
長さ 0.30 m
直径 4.10 m
スパン 29.00 m
形状 Box + pan
製造者 SPXS
バスタイプ Starlink V2M
フェーズステータス In Orbit
所有者/国 SPXS/US

大規模コンステレーション

Loading constellations...